User: anonymous   Login
Location: Peebles
(55.6412°N, 3.1714°W)
Time: 10:11:31
(UTC+01:00)
Language:

FENGYUN 1C DEB - Orbit

View from above orbital plane
View from above orbital plane
View from above satellite
View from above satellite

Ground track
Ground track

The orbit data is extracted from the following two-line orbital elements,

1 46439U 99025EYU 22166.79913279  .00000634  00000-0  30073-3 0  9994
2 46439  98.5044 187.0515 0128429 147.1743 213.7494 14.18535865422541
Epoch (UTC): 15 June 2022 19:10:45
Eccentricity: 0.0128429
inclination: 98.5044°
perigee height: 738 km
apogee height: 923 km
right ascension of ascending node: 187.0515°
argument of perigee: 147.1743°
revolutions per day: 14.18535865
mean anomaly at epoch: 213.7494°
orbit number at epoch: 42254

The dashed part of the orbit path shows where the satellite is in the earth's shadow,  

DLR